Starlink 11292

operational
NORAD ID: 61203 Int'l Des: 2024-171 Owner: SPXS Country: US Constellation: starlink
LEOCIRCULAR

Starlink 11292について

説明を読み込み中...

リアルタイム位置

3D地球を読み込み中...

次回通過

高度履歴

Altitude vs Time

uPlot chart will show altitude changes over time

軌道要素

1 61203U 24171D 26035.23262442 -.00000580 00000-0 78639-7 0 9992
2 61203 53.1591 341.2109 0001687 110.6369 249.4830 15.69710704 79147
Epoch: Feb 4, 2026 • Age: 9 hours

現在のステータス

高度 372.4 km
速度 7.69 km/s
衛星直下点 -37.62°S, 153.22°W
打ち上げ日 Sep 20, 2024
運用期間 1.3 years
タイプ internet

技術仕様

分類 Payload
質量 960.00 kg
乾燥質量 910.00 kg
総質量 960.00 kg
長さ 0.30 m
直径 4.10 m
スパン 29.00 m
形状 Box + pan
製造者 SPXS
バスタイプ Starlink V2MD
フェーズステータス In Orbit
所有者/国 SPXS/US

大規模コンステレーション

Loading constellations...